Temp
21 22 21 23 24 25 26 25 25 27 26 25 26 26 28 30 27 27 26 26 25 24 23 20 18 16 15 14 13 13 13 13 12 12 12 12 13 12 13 14 14 15 14 15
21 20 23 24 24 23 24 24 25 26 25 24 26 26 28 28 28 28 29 27 26 25 23 21 18 17 16 14 14 13 12 13 12 12 13 13 12 13 13 13 14 14 13 14
21 23 22 23 22 22 23 23 24 25 26 25 25 26 27 28 29 28 27 27 27 26 23 21 19 17 17 14 14 14 12 12 12 13 13 13 12 12 12 12 13 13 13 14
21 23 22 21 22 23 23 25 23 24 23 24 25 25 28 27 28 29 28 27 27 26 24 22 20 18 17 16 14 14 13 13 12 12 12 13 13 12 13 12 12 13 13 13
21 21 21 21 22 23 23 25 23 23 24 24 24 24 27 27 26 28 29 29 28 26 25 23 21 20 18 17 14 13 13 14 12 12 13 13 14 13 12 12 13 13 13 12
20 21 21 22 23 23 23 23 23 23 23 21 23 24 26 28 28 28 29 30 29 27 26 24 22 20 19 17 15 13 14 14 14 13 12 12 12 13 12 11 11 11 12 12
18 19 21 22 22 23 23 23 22 21 21 21 25 24 25 27 28 28 28 29 29 28 26 25 23 21 19 18 16 15 16 16 14 14 14 13 13 13 13 12 12 11 11 12
16 17 19 21 22 22 22 23 23 21 22 24 23 23 25 27 28 27 27 28 28 28 26 25 24 22 20 18 16 15 16 16 16 15 15 14 15 14 14 13 14 13 13 13
18 19 21 21 22 23 22 22 24 22 22 21 25 25 26 27 27 28 28 28 29 29 27 25 25 22 20 19 17 15 17 17 16 15 15 15 15 15 15 15 15 14 14 14
19 19 21 22 21 22 23 24 20 21 20 21 24 24 25 26 26 28 28 28 29 29 27 26 25 23 21 19 18 16 17 17 16 15 15 15 15 15 15 15 15 15 15 15
20 18 18 21 21 21 22 21 22 23 22 22 22 24 26 26 26 27 28 28 28 28 27 26 25 23 21 20 18 17 17 17 16 15 16 15 15 15 14 15 15 15 15 15
18 18 19 20 21 22 23 22 22 21 22 22 23 23 26 26 26 24 26 28 27 27 28 27 25 23 22 20 19 18 17 17 16 15 15 15 15 15 15 14 14 15 15 15
17 17 18 19 20 21 21 21 21 21 21 21 20 22 26 25 25 24 25 27 28 28 28 27 25 24 23 21 20 19 18 17 17 16 15 15 15 15 14 14 14 15 15 15
15 17 17 18 19 19 18 19 19 20 20 21 22 22 24 24 25 25 25 26 27 28 28 27 26 25 24 22 21 20 19 18 17 16 16 15 15 15 14 15 14 14 15 15
16 17 17 17 18 18 18 18 19 19 20 19 21 21 23 24 24 24 25 24 24 26 27 27 27 27 26 24 22 21 20 18 17 17 16 16 15 15 15 14 14 14 14 14
15 16 16 17 17 18 18 19 19 19 20 21 21 21 24 24 24 24 24 24 24 24 25 27 27 26 26 25 23 22 20 19 18 17 17 17 16 15 15 15 15 14 14 14
13 15 15 15 16 17 16 18 19 20 21 21 20 22 22 22 22 22 22 22 23 24 25 25 26 26 26 25 23 23 21 20 18 18 17 17 17 16 16 15 15 15 15 15
13 14 14 15 14 14 19 19 19 19 20 22 21 21 20 20 20 21 21 19 19 20 21 23 24 25 25 24 23 23 23 21 19 18 18 18 17 17 16 16 15 15 15 15
14 14 13 14 15 17 18 19 19 19 20 19 20 20 20 20 20 22 21 20 19 19 19 20 21 22 22 22 23 22 21 22 20 19 19 18 18 17 16 16 16 15 14 13
13 14 13 13 14 14 18 18 18 19 18 19 18 19 19 19 19 20 20 19 19 20 19 19 19 19 20 21 20 21 21 21 21 20 20 19 18 17 17 16 15 13 13 12
10 11 12 13 14 16 18 19 18 17 16 18 18 18 18 18 19 19 19 19 19 19 19 17 17 17 17 16 17 18 20 20 20 20 19 18 17 17 15 12 12 11 10 9
11 11 11 13 12 12 18 17 16 16 17 17 18 18 17 18 18 19 18 18 19 18 18 16 15 12 11 12 15 18 18 13 13 12 11 11 11 11 11 11 8 7 7 5
13 15 15 15 16 17 17 17 17 15 15 16 15 16 16 17 18 18 18 17 17 16 15 14 11 8 7 7 11 12 9 9 9 9 8 8 8 7 7 6 5 4 3 1
15 16 15 15 17 17 18 17 15 14 14 14 14 14 14 13 16 16 15 14 14 13 11 9 9 6 4 4 4 6 6 7 6 5 5 4 4 4 3 3 3 1 0 -1
16 16 15 15 16 17 17 15 13 12 13 12 12 11 11 10 12 11 12 9 8 7 6 6 5 4 3 2 1 2 3 5 4 3 2 1 1 -0 -1 -1 -0 -0 -0 -0
15 15 14 14 14 12 13 13 11 11 11 10 9 9 9 7 8 8 7 4 5 3 1 1 0 1 1 0 0 1 2 2 1 1 0 -1 -1 -2 -2 -3 -4 -2 -1 -1
Height
749 747 749 739 739 737 733 738 741 729 732 743 736 733 724 711 720 722 724 725 728 733 738 746 752 756 759 762 764 765 768 772 775 778 784 789 794 799 803 810 814 818 823 829
748 743 732 735 738 742 740 742 740 730 735 743 731 728 719 712 711 710 710 717 720 725 733 741 748 752 755 759 762 763 766 770 774 778 782 787 792 795 801 806 810 815 822 828
736 728 732 734 743 745 738 739 739 738 731 733 734 729 718 708 703 707 708 707 711 716 726 734 741 746 750 755 758 760 763 768 772 777 781 785 789 794 798 802 810 813 820 825
732 724 732 737 737 735 737 726 738 739 745 744 732 736 707 707 705 698 700 703 707 710 717 726 733 740 744 748 755 758 761 765 769 773 777 782 786 790 795 800 805 811 815 821
728 729 729 734 729 726 730 720 734 735 736 737 736 739 710 702 710 698 691 691 697 703 709 717 725 732 739 744 749 754 757 760 765 768 773 778 784 788 792 797 801 805 811 818
728 722 724 724 721 722 724 732 732 733 734 748 733 730 712 698 696 692 686 684 686 696 702 710 720 728 734 740 745 749 751 755 759 764 769 775 778 784 788 794 798 804 808 813
738 732 723 721 725 722 725 730 738 745 744 738 712 726 708 693 689 687 686 683 684 690 696 702 711 719 726 732 739 744 746 749 754 758 764 769 773 778 782 784 791 798 801 806
742 743 729 716 716 721 721 719 719 737 728 718 714 721 703 685 682 684 683 681 682 687 691 694 701 710 717 725 730 736 740 744 748 752 756 762 768 772 775 779 784 788 792 797
725 721 709 712 711 712 719 719 711 723 725 730 704 701 691 684 685 681 679 680 680 678 682 687 693 702 709 715 722 727 732 737 741 746 750 754 758 764 768 772 777 782 787 792
715 721 707 702 711 708 708 702 729 724 736 732 708 707 700 692 690 678 678 677 674 675 678 681 686 695 701 709 717 723 726 730 736 740 743 747 750 753 759 765 769 773 779 784
713 718 718 707 710 708 710 713 707 704 712 717 718 703 679 685 683 681 678 676 674 675 676 679 681 688 696 701 708 715 719 723 726 731 735 739 742 746 750 752 758 764 771 774
719 716 715 710 700 698 695 705 704 715 713 708 708 704 679 680 682 686 682 674 673 672 671 674 678 683 689 693 698 703 710 714 719 723 727 731 736 740 743 745 747 753 759 767
725 721 719 714 708 705 703 707 708 706 709 713 720 711 680 682 685 683 682 674 669 668 667 671 677 678 682 686 691 694 700 705 710 716 720 724 728 730 731 736 742 746 750 755
731 720 723 714 712 713 721 717 714 713 716 710 705 700 691 688 684 680 677 674 669 666 666 667 669 673 676 679 683 686 690 695 701 706 711 715 716 719 723 729 735 739 742 746
729 722 720 720 718 718 718 716 713 715 712 717 706 703 694 687 685 682 679 679 676 670 665 664 664 664 668 673 676 679 682 686 691 695 699 700 707 712 718 722 727 732 736 739
733 725 725 723 719 717 717 712 710 708 706 702 700 699 682 683 683 682 678 676 675 669 664 659 659 660 661 663 667 672 674 677 682 685 686 692 697 703 706 712 717 723 727 731
740 730 728 726 723 720 723 708 701 698 694 694 700 691 691 691 689 685 682 679 673 668 663 660 657 656 656 656 657 661 664 671 673 675 680 683 688 692 697 703 707 711 716 722
739 732 732 728 731 730 696 695 696 698 693 689 691 693 695 695 691 684 684 685 681 677 669 661 656 653 653 652 651 651 655 659 664 668 671 674 677 683 689 694 698 702 707 712
737 734 736 731 721 707 701 693 694 695 694 697 695 693 693 691 688 675 679 683 682 676 669 663 657 653 649 647 646 647 648 650 654 656 659 664 669 673 679 685 690 695 699 703
731 733 733 729 725 718 697 694 693 690 700 697 699 698 698 693 692 682 681 681 678 672 668 661 656 650 647 644 643 642 641 641 643 646 650 656 661 666 670 675 681 685 691 697
739 738 732 727 720 704 694 690 693 703 709 699 699 698 697 697 690 686 684 679 677 672 666 662 656 649 647 645 641 640 636 636 638 642 647 652 655 659 664 669 676 681 688 693
728 729 732 726 724 724 694 697 703 704 702 702 699 697 695 691 688 684 685 680 673 671 669 665 657 655 651 648 643 639 635 639 640 644 646 648 654 658 662 666 673 682 682 688
712 701 700 703 701 696 698 698 698 705 706 703 702 699 695 691 686 682 682 679 676 675 676 671 667 661 657 654 650 647 644 641 644 648 649 648 654 659 667 666 670 671 687 691
698 696 701 700 695 694 694 698 706 707 707 707 706 703 699 696 688 686 686 686 681 679 681 682 675 669 663 661 657 655 651 647 646 652 652 656 656 661 667 672 671 677 681 692
694 695 699 696 693 693 696 701 709 711 709 710 709 709 706 703 696 698 693 695 695 687 690 690 686 680 676 669 665 661 656 654 655 656 657 659 665 668 672 679 681 685 682 692
696 697 698 696 702 707 707 709 714 713 711 712 712 709 710 710 706 703 704 705 701 695 701 699 694 684 688 679 668 666 664 665 666 663 664 667 672 677 681 684 691 696 689 699
Wind_Speed
20 15 19 25 22 20 15 14 15 10 2 8 14 15 15 14 7 9 10 13 15 15 13 14 14 13 12 12 13 13 17 23 29 28 27 27 27 31 32 36 29 35 24 28
11 21 21 18 16 20 19 16 17 12 6 9 13 17 15 15 11 11 10 13 15 15 15 16 17 16 16 15 16 15 19 25 27 27 26 24 31 25 32 37 35 32 23 25
21 11 19 17 17 18 21 20 17 16 6 12 14 19 20 16 14 11 9 10 13 17 18 17 18 19 18 18 18 18 18 22 21 21 21 16 22 22 23 28 38 40 32 28
15 20 11 19 23 20 21 19 17 17 9 10 2 10 10 8 16 14 12 12 12 16 17 17 18 22 22 21 19 19 21 22 20 22 23 21 24 19 21 27 29 37 29 30
10 13 20 20 20 20 20 15 11 17 16 15 16 9 12 6 12 12 13 13 12 15 18 20 20 24 23 22 23 22 21 23 21 22 22 24 24 24 20 23 31 33 29 26
15 8 10 19 14 15 4 8 8 7 9 12 17 13 8 10 10 7 6 7 6 12 16 17 21 23 23 23 23 24 24 25 24 25 25 26 25 24 23 26 26 30 35 38
14 17 12 12 17 15 16 11 6 8 7 8 7 11 13 4 10 12 11 9 4 9 14 17 20 21 26 28 28 27 27 28 29 29 28 28 28 28 27 32 32 31 31 39
11 12 20 13 14 10 21 19 7 9 9 7 6 8 10 5 3 4 5 6 4 5 11 17 21 23 28 30 32 31 30 30 32 31 31 30 30 30 29 31 34 33 34 38
12 15 14 15 14 13 15 20 16 15 5 5 8 5 7 9 9 9 9 5 7 6 9 16 19 25 28 31 33 34 33 32 33 33 32 33 33 33 31 32 32 34 35 35
4 6 13 18 15 19 13 10 7 10 10 15 9 12 7 6 6 8 5 7 7 4 3 12 16 22 29 29 29 30 31 33 32 33 34 34 36 37 35 34 35 36 35 35
8 4 5 6 14 18 14 12 10 7 12 10 9 7 6 10 10 7 1 7 5 9 4 8 12 20 26 28 29 30 31 32 33 34 34 34 35 36 37 38 38 40 37 37
4 3 5 7 6 3 13 18 17 11 12 8 11 11 1 7 11 8 10 12 6 8 6 3 11 16 22 27 29 32 32 33 33 33 34 35 33 34 36 39 40 39 40 38
7 2 6 10 6 2 8 2 5 6 8 14 10 6 4 7 9 8 10 12 9 8 12 2 8 13 16 24 28 30 32 34 32 31 33 33 34 36 38 38 37 36 37 37
3 4 4 3 2 3 4 3 2 5 7 11 13 14 11 14 16 15 17 17 19 18 13 11 6 11 15 21 25 28 30 32 33 33 34 35 37 39 37 36 36 37 37 37
4 6 7 6 4 4 6 7 6 9 8 9 11 13 12 13 14 15 16 17 17 18 15 11 10 9 10 17 22 26 28 31 33 34 35 38 36 34 33 33 34 35 35 36
5 5 5 9 8 10 13 13 12 12 11 11 11 12 9 7 11 14 16 17 16 17 17 14 11 11 11 14 19 23 27 31 32 34 36 33 32 33 34 33 32 33 34 35
4 3 5 9 3 7 10 17 18 16 12 11 10 7 6 12 13 16 18 19 18 18 19 18 16 12 12 17 19 23 27 26 31 33 31 31 30 31 32 31 32 33 34 32
6 5 2 2 4 6 2 1 4 8 11 10 10 9 9 10 13 16 8 12 16 17 19 19 15 13 18 17 18 21 21 26 28 29 29 29 30 30 28 28 30 29 28 30
14 8 3 4 9 13 16 10 8 7 2 3 6 7 7 9 12 8 8 14 16 18 18 16 24 20 18 15 13 15 19 24 26 29 31 30 29 28 28 28 26 24 23 22
14 13 8 5 5 5 3 3 3 2 4 7 6 9 12 13 8 8 17 17 18 18 20 18 21 20 19 18 12 16 19 21 26 27 28 26 27 26 27 25 24 24 23 24
8 10 13 11 7 4 8 6 4 5 4 11 12 13 13 10 10 13 16 16 16 19 22 23 19 14 16 17 12 15 15 17 20 19 20 22 23 23 20 22 23 23 22 19
8 9 7 9 8 9 3 3 7 7 9 12 13 14 15 15 14 12 12 15 14 16 20 21 16 14 16 16 12 10 3 4 8 10 14 14 15 19 22 25 21 20 25 24
6 7 5 8 8 4 3 3 8 8 9 11 11 14 16 15 13 12 9 11 12 15 19 22 15 13 19 20 14 2 3 9 12 13 15 20 20 19 17 23 24 26 18 19
11 9 7 9 8 12 5 4 8 11 10 11 12 12 14 15 14 8 8 12 10 11 15 23 19 15 16 20 23 16 7 9 15 16 20 17 21 21 17 17 19 21 22 19
8 4 10 13 12 10 13 6 10 12 9 10 11 11 12 13 11 10 8 10 11 14 18 18 19 17 16 15 19 23 20 10 16 18 19 21 21 22 24 21 15 16 18 19
8 11 8 8 7 4 9 10 10 12 12 11 12 12 11 11 11 9 7 10 13 15 19 17 19 21 20 13 21 24 20 15 12 16 17 19 19 20 21 24 28 20 20 19
Wind_Direction
202 201 210 217 220 236 275 258 250 248 325 247 242 250 268 262 235 235 213 206 207 207 197 188 198 196 193 192 186 177 181 177 172 172 175 178 180 193 196 195 190 191 182 189
187 224 217 231 230 235 235 249 249 256 207 249 266 262 254 265 252 263 237 212 212 200 192 190 194 199 197 194 192 178 181 176 176 177 181 182 194 182 188 199 197 202 193 194
221 226 221 225 221 229 234 239 246 253 242 261 270 268 250 244 243 244 237 235 209 205 196 191 192 199 196 197 195 189 178 186 184 182 179 165 166 176 173 184 196 213 212 194
236 240 212 215 228 222 241 229 250 259 250 258 170 280 264 240 261 241 244 213 212 207 199 195 192 194 198 195 195 192 186 186 187 182 179 183 185 174 192 190 192 202 209 197
208 227 222 226 225 225 248 253 235 245 245 256 253 258 254 241 252 249 235 221 211 205 202 196 195 194 196 191 189 192 190 188 186 186 189 192 197 196 189 190 202 215 210 199
258 308 274 230 221 215 196 213 215 229 235 238 240 237 265 245 245 260 264 251 215 197 200 199 195 192 193 191 188 192 192 193 190 191 192 187 188 186 185 180 183 195 209 202
238 245 249 239 226 214 225 206 202 213 211 241 208 210 245 243 261 286 281 265 257 190 196 194 192 191 193 190 190 194 193 193 193 192 193 197 198 195 193 184 190 187 193 200
197 230 222 217 217 199 209 205 207 214 233 245 162 229 222 226 278 277 283 251 233 237 205 197 198 195 194 195 191 193 196 194 194 195 195 196 201 198 196 193 195 194 195 199
203 220 177 216 214 216 207 225 247 265 243 266 226 227 262 223 237 248 251 218 257 286 215 202 196 198 200 196 197 195 195 197 195 195 196 197 197 200 201 196 199 199 202 205
259 233 207 208 208 229 216 186 190 218 237 237 234 232 248 177 243 261 254 261 267 299 271 202 199 200 200 201 200 200 201 199 198 198 197 199 200 200 202 204 203 203 205 206
244 237 155 178 205 211 208 212 232 237 230 245 259 253 157 252 262 281 59 347 314 323 322 207 204 201 203 196 199 204 205 202 201 202 202 202 203 204 201 202 205 208 209 209
2 303 193 188 98 321 225 225 234 238 221 238 253 255 189 304 321 316 291 313 317 326 349 235 198 194 198 201 198 202 205 207 207 204 203 207 207 207 208 210 210 209 213 217
335 196 209 234 213 204 214 180 275 264 279 261 250 245 193 291 305 315 319 301 294 306 316 289 202 196 200 202 204 204 205 210 209 207 209 209 211 210 212 215 213 214 215 218
279 248 275 269 72 39 177 203 196 245 243 256 249 269 280 283 293 301 308 314 308 314 314 292 238 217 210 207 207 207 208 208 208 209 210 212 213 215 217 217 218 218 218 219
331 253 238 259 263 257 271 262 249 243 255 259 278 276 274 275 277 285 301 304 298 298 297 292 273 243 217 213 212 212 211 207 207 208 209 215 217 217 219 220 221 222 222 222
345 232 262 252 263 266 266 263 262 260 259 257 248 262 267 287 301 295 289 286 292 294 297 298 284 257 235 222 218 215 213 209 204 208 213 214 214 216 218 219 219 221 222 223
300 241 211 247 277 271 263 243 242 248 241 242 260 330 334 303 309 309 314 309 302 297 300 301 302 292 270 244 226 217 214 208 206 209 213 211 211 213 216 216 216 218 221 221
251 226 230 237 232 241 29 316 260 264 265 271 299 322 319 308 309 304 353 344 327 322 308 301 299 299 292 272 247 231 219 210 208 213 213 209 205 209 210 213 215 216 217 221
211 224 208 231 229 280 287 269 243 228 196 43 354 358 347 330 303 268 353 345 331 327 316 294 292 292 293 288 269 240 219 212 211 213 213 210 207 202 203 209 212 211 212 210
200 218 217 193 240 237 33 130 323 277 204 36 3 346 337 329 335 328 332 333 324 324 324 316 305 299 291 290 279 250 233 220 220 219 214 209 206 204 202 202 202 196 199 208
186 203 218 222 247 268 272 274 320 240 66 339 339 330 332 313 313 310 319 319 329 326 327 328 321 320 323 313 295 256 236 228 230 222 214 207 202 202 193 176 180 182 184 183
177 188 195 229 235 250 270 239 240 11 337 330 324 324 319 311 300 304 314 320 338 338 338 340 347 353 354 341 302 264 208 93 124 143 142 143 155 169 170 172 166 173 169 161
220 214 196 201 208 101 75 314 350 359 335 335 335 328 324 314 300 303 320 338 1 359 348 346 359 12 17 4 351 336 91 127 139 143 138 145 152 150 158 156 151 144 153 133
224 235 244 253 237 248 312 342 349 350 349 345 341 330 336 341 329 327 337 347 357 18 5 347 353 9 23 23 18 19 47 115 119 111 110 107 115 123 132 142 146 139 134 133
239 212 236 253 260 281 285 10 347 332 342 346 344 350 351 343 340 332 352 2 354 17 9 1 359 4 9 27 29 28 31 78 100 93 94 96 97 95 92 85 88 116 133 156
224 240 233 253 19 330 304 325 346 328 336 347 343 349 358 0 349 352 27 15 14 33 12 6 7 16 352 22 46 37 39 50 61 86 89 90 92 91 90 88 82 89 109 130